Location: Jackson
(42.2460°N, 84.4010°W)
Time: 19:34:27
(UTC-04:00)

Courier 1B Rocket - Pass Details

Date: 15 February 2026
Orbit: 920 x 1201 km, 28.2° (Epoch: 13 March)

Event Time Altitude Azimuth Distance (km) Brightness Sun altitude
Rises 21:09:07 0° 230° (SW) 3,576 8.4 -33.5°
Reaches altitude 10° 21:12:20 10° 215° (SW) 2,663 7.5 -34.1°
Enters shadow 21:13:38 14° 205° (SSW) 2,375 7.1 -34.3°
Maximum altitude 21:16:56 21° 169° (SSE) 2,045 - -34.9°
Drops below altitude 10° 21:21:44 10° 123° (ESE) 2,788 - -35.8°
Sets 21:25:12 0° 108° (ESE) 3,795 - -36.4°
